Location: Marcé
(47.5801°N, 0.3280°W)
Time: 17:14:25
(UTC+01:00)

SR - Pass Details

Date: 07 December 2021
Orbit: 582 x 872 km, 66.7° (Epoch: 22 January)

Event Time Altitude Azimuth Distance (km) Brightness Sun altitude
Rises 22:58:33 0° 190° (S) 2,978 - -56.2°
Reaches altitude 10° 23:01:02 10° 182° (S) 2,028 - -56.5°
Maximum altitude 23:05:10 36° 116° (ESE) 986 - -57.1°
Drops below altitude 10° 23:09:07 10° 50° (NE) 1,936 - -57.6°
Sets 23:11:27 0° 42° (NE) 2,825 - -57.9°
